KE7YUP Weather Reports


Display with metric or nautical units.
time (UTC)temp
F
wind
direction
speed
MPH
gust
MPH
rain 1hr
in
rain 24hr
in
rain mn
in
humidity
%
barometer
mb
20210119215218 41 68 9.0 12.0 0.00 0.00 0.00 29 1028.1
20210119214215 41 23 8.0 11.0 0.00 0.00 0.00 28 1028.0
20210119213218 41 0 7.0 10.0 0.00 0.00 0.00 28 1028.0
20210119212220 42 0 12.0 15.0 0.00 0.00 0.00 28 1028.0
20210119211218 43 0 4.0 6.0 0.00 0.00 0.00 26 1028.4
20210119210218 43 158 2.0 4.0 0.00 0.00 0.00 22 1028.1
20210119205219 43 113 2.0 3.0 0.00 0.00 0.00 22 1028.2
20210119204220 43 158 2.0 4.0 0.00 0.00 0.00 22 1028.6
20210119203217 42 180 1.0 3.0 0.00 0.00 0.00 22 1028.8
20210119202217 41 225 1.0 2.0 0.00 0.00 0.00 22 1028.6
20210119201217 42 270 1.0 3.0 0.00 0.00 0.00 23 1028.7
20210119200220 42 0.0 1.0 0.00 0.00 0.00 24 1028.8
20210119195217 41 158 4.0 6.0 0.00 0.00 0.00 25 1028.9
20210119194219 40 158 3.0 4.0 0.00 0.00 0.00 26 1028.6
20210119193217 39 248 2.0 3.0 0.00 0.00 0.00 28 1028.6
20210119192216 39 180 2.0 3.0 0.00 0.00 0.00 28 1028.7
20210119191217 39 180 4.0 8.0 0.00 0.00 0.00 28 1028.3
20210119190220 38 225 6.0 7.0 0.00 0.00 0.00 29 1028.7
20210119185216 38 180 4.0 8.0 0.00 0.00 0.00 30 1028.3
20210119184217 37 248 5.0 8.0 0.00 0.00 0.00 32 1028.3
20210119183218 37 248 4.0 7.0 0.00 0.00 0.00 34 1027.9
20210119182217 37 248 3.0 5.0 0.00 0.00 0.00 33 1027.8
20210119181219 36 248 4.0 5.0 0.00 0.00 0.00 37 1027.8
20210119180216 36 248 3.0 5.0 0.00 0.00 0.00 39 1027.7
20210119175217 35 225 3.0 4.0 0.00 0.00 0.00 43 1027.4
20210119174217 34 225 4.0 6.0 0.00 0.00 0.00 44 1027.4
20210119173218 32 248 5.0 8.0 0.00 0.00 0.00 46 1026.8
20210119172216 31 270 8.0 9.0 0.00 0.00 0.00 49 1026.7
20210119171219 30 248 7.0 9.0 0.00 0.00 0.00 50 1026.1
20210119170216 29 248 7.0 9.0 0.00 0.00 0.00 53 1026.0
20210119165217 29 248 10.0 13.0 0.00 0.00 0.00 53 1025.9
20210119164216 28 270 6.0 7.0 0.00 0.00 0.00 56 1025.4
20210119163216 29 248 5.0 7.0 0.00 0.00 0.00 52 1025.8
20210119162216 34 225 3.0 5.0 0.00 0.00 0.00 40 1026.3
20210119161221 35 0.0 0.0 0.00 0.00 0.00 35 1026.5
20210119160216 33 90 1.0 2.0 0.00 0.00 0.00 36 1025.9
20210119155216 32 68 2.0 3.0 0.00 0.00 0.00 38 1025.5
20210119154218 30 0.0 1.0 0.00 0.00 0.00 40 1024.9
20210119153216 30 270 1.0 2.0 0.00 0.00 0.00 40 1024.7
20210119152218 29 0.0 0.0 0.00 0.00 0.00 42 1024.6
20210119151217 28 315 2.0 3.0 0.00 0.00 0.00 42 1024.1
20210119150216 28 0 4.0 5.0 0.00 0.00 0.00 41 1023.8
20210119145216 28 0 4.0 5.0 0.00 0.00 0.00 41 1024.1
20210119144216 29 338 5.0 6.0 0.00 0.00 0.00 40 1023.9
20210119143216 28 315 9.0 11.0 0.00 0.00 0.00 42 1023.6
20210119142217 29 338 2.0 3.0 0.00 0.00 0.00 41 1024.1
20210119141216 29 315 4.0 5.0 0.00 0.00 0.00 41 1023.5
20210119140216 30 0 2.0 3.0 0.00 0.00 0.00 39 1023.7
20210119135217 30 293 5.0 8.0 0.00 0.00 0.00 38 1023.6
20210119134217 29 315 6.0 8.0 0.00 0.00 0.00 40 1022.9
20210119133222 30 0 4.0 5.0 0.00 0.00 0.00 38 1023.1
20210119132216 29 0 3.0 4.0 0.00 0.00 0.00 40 1022.6
20210119131216 29 0 8.0 10.0 0.00 0.00 0.00 43 1022.3
20210119130223 28 338 7.0 10.0 0.00 0.00 0.00 44 1022.1
20210119125218 29 0 5.0 6.0 0.00 0.00 0.00 44 1022.1
20210119124217 29 315 1.0 2.0 0.00 0.00 0.00 43 1022.0
20210119123219 30 0.0 1.0 0.00 0.00 0.00 42 1022.3
20210119122216 31 45 3.0 4.0 0.00 0.00 0.00 39 1022.4
20210119121216 30 45 5.0 9.0 0.00 0.00 0.00 40 1021.9
20210119120216 30 338 8.0 11.0 0.00 0.00 0.00 44 1022.1
20210119115218 30 338 6.0 9.0 0.00 0.00 0.00 43 1022.0
20210119114216 30 338 10.0 13.0 0.00 0.00 0.00 44 1021.8
20210119113216 30 315 7.0 11.0 0.00 0.00 0.00 46 1021.4
20210119112218 29 293 8.0 10.0 0.00 0.00 0.00 47 1021.2
20210119111216 30 270 3.0 6.0 0.00 0.00 0.00 44 1021.4
20210119110216 29 338 3.0 6.0 0.00 0.00 0.00 48 1021.0
20210119105217 28 293 9.0 11.0 0.00 0.00 0.00 52 1021.0
20210119104217 29 338 10.0 12.0 0.00 0.00 0.00 50 1021.3
20210119103216 30 338 8.0 11.0 0.00 0.00 0.00 48 1021.2
20210119102218 30 315 5.0 9.0 0.00 0.00 0.00 49 1021.4
20210119101215 30 293 7.0 11.0 0.00 0.00 0.00 51 1021.3
20210119100223 31 315 6.0 10.0 0.00 0.00 0.00 47 1021.5
20210119095216 31 338 6.0 8.0 0.00 0.00 0.00 47 1021.5
20210119094216 31 0 5.0 8.0 0.00 0.00 0.00 46 1021.3
20210119093219 32 68 6.0 9.0 0.00 0.00 0.00 46 1021.3
20210119092215 31 0 6.0 9.0 0.00 0.00 0.00 49 1021.2
20210119091217 31 0 5.0 10.0 0.00 0.00 0.00 50 1021.1
20210119090215 31 338 8.0 10.0 0.00 0.00 0.00 53 1021.1
20210119085217 30 338 9.0 11.0 0.00 0.00 0.00 56 1020.9
20210119084215 31 0 9.0 12.0 0.00 0.00 0.00 54 1020.9
20210119083218 32 0 9.0 12.0 0.00 0.00 0.00 50 1021.2
20210119082219 31 45 10.0 14.0 0.00 0.00 0.00 52 1020.7
20210119081223 31 0 10.0 15.0 0.00 0.00 0.00 57 1020.9
20210119080215 31 23 11.0 21.0 0.00 0.00 0.00 59 1020.8
20210119075220 31 0 12.0 16.0 0.00 0.00 0.00 55 1021.0
20210119074215 31 338 8.0 10.0 0.00 0.00 0.00 57 1020.7
20210119073215 31 338 6.0 9.0 0.00 0.00 0.00 56 1020.8
20210119072215 31 0 9.0 13.0 0.00 0.00 0.00 56 1020.5
20210119071216 31 0 10.0 13.0 0.00 0.00 0.00 57 1020.6
20210119070217 32 0 11.0 16.0 0.00 0.00 0.00 55 1020.7
20210119065216 31 338 9.0 11.0 0.00 0.00 0.00 57 1020.3
20210119064221 31 0 9.0 13.0 0.00 0.00 0.00 59 1020.3
20210119063217 30 0 12.0 17.0 0.00 0.00 0.00 61 1019.9
20210119062217 31 338 6.0 11.0 0.00 0.00 0.00 61 1019.9
20210119061216 31 338 11.0 15.0 0.00 0.00 0.00 61 1020.2
20210119060216 31 338 16.0 20.0 0.00 0.00 0.00 60 1020.0
20210119055219 31 315 12.0 17.0 0.00 0.00 0.00 62 1020.0
20210119054218 31 293 8.0 11.0 0.00 0.00 0.00 64 1020.2
20210119053217 31 315 10.0 14.0 0.00 0.00 0.00 66 1019.8
20210119052219 31 338 8.0 13.0 0.00 0.00 0.00 67 1019.9
20210119051217 31 293 8.0 12.0 0.00 0.00 0.00 68 1020.0
20210119050216 31 293 7.0 14.0 0.00 0.00 0.00 68 1019.9
20210119045216 31 338 9.0 12.0 0.00 0.00 0.00 68 1020.0
20210119044216 32 0 6.0 10.0 0.00 0.00 0.00 66 1020.0
20210119043216 31 23 11.0 15.0 0.00 0.00 0.00 68 1019.5
20210119042217 31 0 8.0 12.0 0.00 0.00 0.00 68 1019.2
20210119041216 31 338 6.0 11.0 0.00 0.00 0.00 68 1019.2
20210119040227 31 0 5.0 9.0 0.00 0.00 0.00 71 1018.8
20210119035220 31 338 13.0 23.0 0.00 0.00 0.00 70 1018.6
20210119034216 31 338 9.0 16.0 0.00 0.00 0.00 71 1018.5
20210119033216 31 338 14.0 23.0 0.00 0.00 0.00 71 1018.5
20210119032222 31 338 7.0 12.0 0.00 0.00 0.00 71 1018.3
20210119031218 31 315 9.0 16.0 0.00 0.00 0.00 72 1018.2
20210119030218 31 338 11.0 20.0 0.00 0.00 0.00 68 1018.2
20210119025224 32 0 11.0 20.0 0.00 0.00 0.00 64 1018.7
20210119024217 32 23 10.0 15.0 0.00 0.00 0.00 61 1018.4
20210119023222 33 113 3.0 6.0 0.00 0.00 0.00 60 1018.3
20210119022216 33 338 17.0 27.0 0.00 0.00 0.00 60 1018.7
20210119021216 33 293 10.0 15.0 0.00 0.00 0.00 61 1018.3
20210119020216 32 338 12.0 20.0 0.00 0.00 0.00 64 1018.3
20210119015216 32 315 10.0 16.0 0.00 0.00 0.00 66 1018.3
20210119014216 32 338 15.0 20.0 0.00 0.00 0.00 70 1018.4
20210119013218 32 68 6.0 16.0 0.00 0.00 0.00 71 1018.6
20210119012217 32 338 9.0 16.0 0.00 0.00 0.00 71 1018.3
20210119011216 32 45 7.0 12.0 0.00 0.00 0.00 71 1018.5
20210119010217 32 0 20.0 26.0 0.00 0.00 0.00 69 1018.3
20210119005217 32 68 9.0 15.0 0.00 0.00 0.00 65 1018.4
20210119004220 33 23 8.0 17.0 0.00 0.00 0.00 59 1018.4
20210119003219 33 338 14.0 24.0 0.00 0.00 0.00 55 1019.0
20210119002225 33 338 10.0 19.0 0.00 0.00 0.00 52 1018.7
20210119001216 33 45 9.0 21.0 0.00 0.00 0.00 51 1018.3
20210119000236 34 23 13.0 20.0 0.00 0.00 0.00 52 1018.8
20210118235220 34 293 7.0 14.0 0.00 0.00 0.00 51 1018.7
20210118234218 34 315 8.0 11.0 0.00 0.00 0.00 51 1018.5
20210118233215 34 45 12.0 21.0 0.00 0.00 0.00 52 1018.4
20210118232215 34 0 18.0 30.0 0.00 0.00 0.00 53 1018.2
20210118231215 35 248 6.0 14.0 0.00 0.00 0.00 54 1018.5
20210118230222 34 338 8.0 13.0 0.00 0.00 0.00 55 1018.7
20210118225216 35 68 10.0 17.0 0.00 0.00 0.00 58 1018.6
20210118224218 35 0 8.0 14.0 0.00 0.00 0.00 59 1019.1
20210118223220 35 315 13.0 21.0 0.00 0.00 0.00 59 1018.9
20210118222220 36 338 15.0 27.0 0.00 0.00 0.00 59 1018.9
20210118221216 36 338 14.0 26.0 0.00 0.00 0.00 60 1019.0
20210118220217 36 338 18.0 25.0 0.00 0.00 0.00 59 1019.1